www.pogodaiklimat.ru

Погода и климат >> Архив погоды >> Финляндия >> Раутаваара Яла-Луоста


ПОГОДА в Раутаваара Яла-Луоста

  • Прогноз погоды в Раутаваара Яла-Луоста
  • Монитор погоды в Раутаваара Яла-Луоста

АРХИВ ПОГОДЫ в Раутаваара Яла-Луоста

Время (UTC), дата Ветер
(напр.,м/с)
 
Видим.   Явления Облачность Т
(С)
Тd
(С)
f
(%)
Тe
(С)
Тes
(С)
Комфортность P
(гПа)
Po
(гПа)
Тmin
(С)
Tmax
(С)
R
(мм)
R24
(мм)
S
(см)
00 9.06 Ю 1-2
{2}
11 км 1/0
[]
+15.7 +15.2 97 +16 +16 1015.5 995.8
03 9.06 штиль 0-2
{2}
24 км 1/0
[]
+18.9 +16.9 88 +20 +22 1014.2 994.7
06 9.06 Ю 1-2
{6}
22 км в посл. час дождь {ливн. осадки} 6/6 2000 м
[]
+19.3 +17.9 92 +22 +26 комфорт 1013.5 994.1 +15.7 +22.4 0.4
09 9.06 Ю 4-8
{10}
25 км слаб. ливневой дождь {метель} 6/1 1000 м
[]
+23.2 +16.7 67 +28 +34 душно 1011.9 992.8
12 9.06 ЮЗ 4-10
{10}
40 км {ливн. осадки} 4/4 600 м
[]
+21.2 +16.3 74 +25 +29 комфорт 1012.8 993.5
15 9.06 ЮЗ 4-7
{9}
40 км 4/4 1000 м
[]
+20.3 +11.5 57 +22 +24 комфорт 1013.5 994.2
18 9.06 ЮЗ 3-6
{8}
50 км ясно +18.7 +8.4 51 +19 +20 1013.9 994.5 +18.6 +24.5 1
21 9.06 ЮЗ 2-5
{5}
50 км ясно +14.4 +8.3 67 +14 +14 1014.5 994.7
00 10.06 Ю 2-3
{4}
50 км ясно +12.0 +7.0 71 +11 +11 1014.5 994.6
03 10.06 ЮЗ 3-6
{7}
40 км ясно +14.0 +8.9 71 +13 +14 1013.7 994.0
06 10.06 ЮЗ 4-8
{8}
35 км 6/6 600 м
[]
+15.4 +9.6 68 +14 +16 1013.5 993.9 +11.1 +18.7
09 10.06 ЮЗ 5-10
{12}
40 км 9/4 1000 м
[]
+16.9 +8.5 58 +16 +18 1013.3 993.7
12 10.06 ЮЗ 5-10
{11}
40 км 9/1 1000 м
[]
+16.9 +8.0 56 +16 +19 1013.5 994.0
15 10.06 ЮЗ 4-7
{11}
35 км 9/9 1000 м
[]
+15.7 +8.9 64 +15 +15 1014.1 994.5
18 10.06 ЮЗ 3-7
{9}
45 км 6/6 1500 м
[]
+14.9 +9.0 68 +14 +14 1014.4 994.7 +11.1 +18.7
21 10.06 ЮЗ 2-4
{8}
50 км слаб. ливневой дождь 9/9 600 м
[]
+13.2 +10.5 84 +12 +12 1015.2 995.4 0.4
00 11.06 ЮЗ 1-2
{3}
50 км {ливн. осадки, дождь} 4/4 1000 м
[]
+11.2 +9.4 89 +11 +11 1016.3 996.3
03 11.06 СЗ 2-6
{7}
50 км 9/9 300 м
[]
+10.7 +7.8 82 +9 +9 1018.7 998.6
06 11.06 СЗ 3-7
{7}
45 км ясно +10.4 +2.7 59 +9 +14 1021.2 1001.0 +9.6 +15.0 0.4
09 11.06 С 3-5
{7}
35 км 1/0 1000 м
[]
+12.2 +1.6 48 +11 +21 опасность
простуды
1022.8 1002.7
12 11.06 СЗ 3-8
{8}
35 км 6/0 1500 м
[]
+14.0 +1.7 43 +13 +20 1023.6 1003.7
15 11.06 СЗ 3-7
{7}
40 км 1/0 1500 м
[]
+13.0 +2.3 48 +12 +16 1024.6 1004.6
18 11.06 С 3-5
{6}
50 км 9/9 1500 м
[]
+10.3 +1.4 54 +9 +9 1025.4 1005.2 +10.3 +14.6
21 11.06 -5
{5}
50 км 10/0 1500 м
[]
+8.6 +1.9 63 1026.8 1006.4
00 12.06 С 3-6
{7}
50 км 4/0 1500 м
[]
+7.0 +2.7 74 +4 +4 1027.9 1007.3
03 12.06 СВ 3-5
{6}
45 км 1/0 1500 м
[]
+7.0 +2.8 75 +4 +5 1029.1 1008.6
06 12.06 СВ 2-5
{7}
50 км 1/1 1500 м
[]
+8.2 +0.2 57 +7 +13 1030.2 1009.7 +6.0 +10.3
09 12.06 СВ 3-6
{6}
40 км 4/0 1500 м
[]
+11.6 -0.6 43 +10 +19 1030.1 1009.9
12 12.06 С 3-5
{7}
40 км 1/0 1500 м
[]
+12.8 -1.7 37 +12 +21 1029.6 1009.5
15 12.06 СВ 3-5
{5}
35 км ясно +13.2 -1.3 37 +12 +16 1028.8 1008.7
18 12.06 В 2-3
{4}
50 км ясно +11.6 -0.5 43 +11 +12 1029.0 1008.7 +8.2 +13.9
21 12.06 С 1-1
{1}
25 км 6/0
[]
+3.7 +2.2 90 +2 +2 1029.7 1008.9
00 13.06 ЮВ 1-3
{3}
50 км ясно +4.5 +1.9 83 +3 +3 1030.1 1009.3
03 13.06 ЮВ 2-4
{4}
50 км 1/0
[]
+9.0 +2.8 65 +8 +9 1029.3 1008.9
06 13.06 Ю 3-5
{6}
40 км 6/0
[]
+12.5 +3.2 53 +11 +15 1028.5 1008.3 +2.7 +12.9
09 13.06 ЮВ 3-5
{6}
30 км 4/1
[]
+14.0 +3.3 48 +13 +21 1027.5 1007.5
12 13.06 Ю 3-6
{6}
35 км 6/1
[]
+14.4 +2.5 45 +14 +20 1026.2 1006.2
15 13.06 Ю 2-4
{5}
45 км 9/1 1500 м
[]
+12.1 +4.0 58 +11 +14 1024.5 1004.4
18 13.06 ЮВ 1-2
{3}
50 км {ливн. осадки, дождь} 10/10
[]
+11.2 +3.2 58 +11 +11 1022.9 1002.8 +11.2 +15.2
21 13.06 штиль 0-2
{3}
50 км 10/0 2000 м
[]
+10.8 +4.6 66 +10 +10 1022.7 1002.5
00 14.06 В 1-2
{3}
50 км в посл. час морось {ливн. осадки, дождь} 9/9 2000 м
[]
+10.4 +5.3 71 +10 +10 1020.8 1000.7
03 14.06 СВ 2-4
{5}
45 км 9/0 2000 м
[]
+11.6 +7.0 73 +11 +11 1019.9 999.9
06 14.06 В 3-5
{5}
35 км {метель} ясно +16.2 +4.6 46 +16 +22 1019.0 999.3 +9.9 +16.3
09 14.06 С 2-3
{6}
30 км ясно +18.8 +6.9 46 +20 +32 1018.2 998.7
12 14.06 Ю 2-5
{5}
30 км ясно +21.3 +7.3 40 +22 +34 комфорт 1017.0 997.6
15 14.06 ЮЗ 3-5
{6}
40 км ясно +20.5 +7.3 42 +22 +26 комфорт 1015.6 996.3
18 14.06 Ю 2-4
{5}
50 км ясно +17.8 +7.4 51 +18 +19 1014.6 995.0 +16.1 +22.2
21 14.06 штиль 0-2
{2}
50 км 9/0
[]
+11.4 +9.0 85 +11 +11 1014.7 994.7
00 15.06 штиль 0-1
{1}
50 км 9/9 2000 м
[]
+9.0 +8.2 95 +8 +8 1014.4 994.3
03 15.06 З 2-4
{4}
40 км 9/1 300 м
[]
+14.8 +10.7 76 +15 +15 1013.7 994.0
06 15.06 ЮЗ 2-4
{4}
35 км 6/4 1500 м
[]
+15.9 +10.3 69 +16 +19 1014.1 994.4 +8.7 +17.9
09 15.06 С 2-4
{4}
30 км ясно +19.9 +8.9 49 +22 +34 комфорт 1013.5 994.1
12 15.06 СЗ 2-4
{4}
45 км 9/9 2000 м
[]
+20.4 +9.6 50 +22 +24 комфорт 1013.7 994.3
15 15.06 З 1-3
{4}
45 км 9/9 2000 м
[]
+21.4 +9.6 47 +23 +23 комфорт 1013.2 994.0
18 15.06 ЮЗ 2-5
{6}
50 км 1/1
[]
+19.6 +9.5 52 +21 +22 комфорт 1013.0 993.6 +15.9 +22.7
21 15.06 Ю 1-1
{2}
50 км ясно +11.4 +10.1 92 +11 +11 1013.8 993.8

 

Местоположение метеостанции Раутаваара Яла-Луоста (Финляндия): широта 63.38 долгота 28.66 высота над уровнем моря 166 м.

В архиве по умолчанию представлена погода в Раутаваара Яла-Луоста за последнюю неделю. Архивные данные за месяц целиком и за предыдущие месяцы, начиная с января 2011 года, Вы можете получить, выбрав интересующий диапазон дат из раскрывающегося списка и нажав кнопку "Ввод!".


*Определитесь, кто Вы:
робот инопланетянин человек

Внимание! Время в таблицах - всемирное. Для получения местного времени необходимо прибавить поправку, которая равна 1 ч.

Смотрите также архив погоды в соседних городах и на ближайших метеорологических станциях:

Погода в Юуке (Финляндия) (33 км)
Погода в Валтимо (Финляндия) (33 км)
Погода в Аэропорту Куопио (Финляндия) (60 км)
Погода в Лиексе (Финляндия) (70 км)
Погода в Куопио Маанинка (Финляндия) (73 км)
Погода в Куопио Ритониеми (Финляндия) (75 км)
Погода в Куопио Савилахти (Финляндия) (75 км)
Погода в Соткамо Куоланиеми (Финляндия) (83 км)
Погода в Виерема Каараккала (Финляндия) (88 км)
Погода в Йоэнсуу аэропорту (Финляндия) (93 км)

Пояснения к столбцам:

Ветер - указаны скорость ветра в м/с - средняя за 10 мин, порывы в срок и между сроками (в фигурных скобках) и направление, откуда дует ветер: С - северный, СВ - северо-восточный, В - восточный, ЮВ - юго-восточный, Ю - южный, ЮЗ - юго-западный, З - западный, СЗ - северо-западный.
Видимость - горизонтальная дальность видимости в метрах или километрах. При видимости от 1 до 10 км при отсутствии осадков обычно наблюдается дымка, при ухудшении видимости до 1 км и менее - туман. В сухую погоду видимость может ухудшаться дымом, пылью или мглою.
Явления - указаны атмосферные явления, наблюдавшиеся в срок или в последний час перед сроком; фигурными скобками обозначены явления, наблюдавшиеся между сроками (за 1-3 часа до срока); квадратными скобками обозначены град или гололедные отложения с указанием их диаметра в мм.
Облачность - указаны через наклонную черту общая и нижняя облачность в баллах и высота нижней границы облаков в метрах; квадратными скобками обозначены формы облаков: Ci - перистые, Cs - перисто-слоистые, Cc - перисто-кучевые, Ac - высококучевые, As - высокослоистые, Sc - слоисто-кучевые, Ns - слоисто-дождевые, Cu - кучевые, Cb - кучево-дождевые. Подробнее классификацию облаков см. в Атласе облаков (PDF).
T - Температура воздуха - температура, измеренная на высоте 2 м над землей.
Td - Температура точки росы - температура, при понижении до которой содержащийся в воздухе водяной пар достигнет насыщения.
f - Относительная влажность воздуха - влажноcть воздуха, измеренная на высоте 2 м над землей.
Te - Эффективная температура - температура, которую ощущает одетый по сезону человек в тени. Характеристика душности погоды. При расчете учитывается влияние влажности воздуха и скорости ветра на теплоощущения человека.
Tes - Эффективная температура на солнце - температура, которую ощущает человек, с поправкой на солнечный нагрев. Характеристика знойности погоды. Зависит от высоты солнца над горизонтом, облачности и скорости ветра. Ночью, в пасмурную погоду, а также при ветре 12 м/с и более поправка равна нулю.
P - Атмосферное давление - приведенное к уровню моря атмосферное давление.
Po - Атмосферное давление - измеренное на уровне метеостанции атмосферное давление.
Tmin - Минимальная температура - минимум температуры воздуха на высоте 2 м над землей.
Tmax - Максимальная температура - максимум температуры воздуха на высоте 2 м над землей.
R - Количество осадков - Количество выпавших осадков за период времени, мм. При наведении курсора мыши на число - период времени, за который выпало указанное количество осадков.
R24 - Количество осадков - Количество выпавших осадков за 24 часа, мм.
S - Снежный покров - Высота снежного покрова, см. При наведении курсора мыши на число - состояние снежного покрова и степень покрытия местности в баллах.